TimeCDT,TemperatureF,Dew PointF,Humidity,Sea Level PressureIn,VisibilityMPH,Wind Direction,Wind SpeedMPH,Gust SpeedMPH,PrecipitationIn,Events,Conditions,WindDirDegrees,DateUTC
12:15 AM,34.2,27.5,77,30.14,10.0,SSE,6.9,-,N/A,,Clear,150,2012-10-11 05:15:00
12:35 AM,32.0,27.9,85,30.13,10.0,SSE,8.1,-,N/A,,Clear,160,2012-10-11 05:35:00
12:55 AM,34.9,28.9,79,30.12,10.0,SSE,9.2,-,N/A,,Clear,160,2012-10-11 05:55:00
1:15 AM,34.5,28.9,80,30.12,10.0,SSE,8.1,-,N/A,,Clear,150,2012-10-11 06:15:00
2:15 AM,34.3,28.4,79,30.10,10.0,SE,4.6,-,N/A,,Clear,140,2012-10-11 07:15:00
2:55 AM,37.9,30.6,75,30.09,10.0,South,10.4,-,N/A,,Clear,170,2012-10-11 07:55:00
3:15 AM,37.6,30.9,77,30.09,10.0,SSE,8.1,-,N/A,,Clear,160,2012-10-11 08:15:00
3:35 AM,36.1,30.2,79,30.10,10.0,South,5.8,-,N/A,,Clear,170,2012-10-11 08:35:00
3:55 AM,36.1,31.1,82,30.09,10.0,South,9.2,-,N/A,,Clear,190,2012-10-11 08:55:00
4:15 AM,42.3,32.4,68,30.09,10.0,SSW,13.8,-,N/A,,Clear,200,2012-10-11 09:15:00
4:35 AM,43.7,32.2,64,30.08,10.0,SSW,13.8,20.7,N/A,,Clear,200,2012-10-11 09:35:00
4:55 AM,44.1,32.4,63,30.09,10.0,SSW,13.8,-,N/A,,Clear,200,2012-10-11 09:55:00
5:15 AM,44.2,32.2,63,30.09,10.0,SSW,11.5,-,N/A,,Clear,200,2012-10-11 10:15:00
5:35 AM,45.0,32.0,60,30.08,10.0,SSW,13.8,19.6,N/A,,Clear,200,2012-10-11 10:35:00
5:55 AM,39.0,31.8,75,30.08,10.0,South,10.4,-,N/A,,Clear,170,2012-10-11 10:55:00
6:15 AM,39.6,31.3,72,30.08,10.0,South,9.2,-,N/A,,Clear,170,2012-10-11 11:15:00
6:35 AM,36.3,31.1,81,30.09,10.0,SSE,8.1,-,N/A,,Clear,160,2012-10-11 11:35:00
6:55 AM,36.1,31.6,84,30.08,10.0,South,6.9,-,N/A,,Clear,180,2012-10-11 11:55:00
7:15 AM,43.9,33.8,68,30.07,10.0,SSW,11.5,-,N/A,,Clear,200,2012-10-11 12:15:00
7:35 AM,44.6,33.4,65,30.07,10.0,South,9.2,-,N/A,,Clear,190,2012-10-11 12:35:00
7:55 AM,45.7,34.0,64,30.08,10.0,SSW,9.2,-,N/A,,Clear,200,2012-10-11 12:55:00
8:15 AM,46.9,34.3,62,30.09,10.0,South,9.2,-,N/A,,Clear,190,2012-10-11 13:15:00
8:35 AM,48.6,34.3,58,30.09,10.0,SSW,12.7,19.6,N/A,,Clear,200,2012-10-11 13:35:00
8:55 AM,49.5,34.7,57,30.08,10.0,SSW,15.0,19.6,N/A,,Clear,200,2012-10-11 13:55:00
9:15 AM,50.7,34.9,55,30.09,10.0,SSW,13.8,20.7,N/A,,Clear,200,2012-10-11 14:15:00
9:35 AM,52.9,34.2,49,30.10,10.0,SSW,15.0,-,N/A,,Clear,200,2012-10-11 14:35:00
9:55 AM,54.7,33.6,45,30.09,10.0,SSW,16.1,-,N/A,,Clear,200,2012-10-11 14:55:00
10:15 AM,56.3,33.6,42,30.10,10.0,SSW,12.7,-,N/A,,Clear,200,2012-10-11 15:15:00
10:35 AM,58.8,33.3,38,30.09,10.0,SSW,15.0,19.6,N/A,,Clear,200,2012-10-11 15:35:00
10:55 AM,60.1,33.6,37,30.09,10.0,SW,13.8,17.3,N/A,,Clear,220,2012-10-11 15:55:00
11:15 AM,60.8,32.0,34,30.08,10.0,SSW,17.3,23.0,N/A,,Clear,210,2012-10-11 16:15:00
11:35 AM,62.2,32.5,33,30.08,10.0,SW,13.8,20.7,N/A,,Clear,220,2012-10-11 16:35:00
11:55 AM,62.8,32.9,33,30.08,10.0,WSW,11.5,24.2,N/A,,Clear,240,2012-10-11 16:55:00
12:15 PM,64.4,33.1,31,30.07,10.0,SW,13.8,17.3,N/A,,Clear,230,2012-10-11 17:15:00
12:55 PM,66.4,33.4,29,30.06,10.0,West,13.8,18.4,N/A,,Clear,260,2012-10-11 17:55:00
1:15 PM,66.6,33.1,29,30.05,10.0,West,17.3,23.0,N/A,,Clear,270,2012-10-11 18:15:00
1:35 PM,66.9,33.6,29,30.06,10.0,West,9.2,20.7,N/A,,Clear,260,2012-10-11 18:35:00
1:55 PM,67.6,34.3,29,30.05,10.0,West,11.5,19.6,N/A,,Clear,270,2012-10-11 18:55:00
2:15 PM,66.7,35.1,31,30.04,10.0,WSW,12.7,18.4,N/A,,Clear,250,2012-10-11 19:15:00
2:35 PM,68.0,35.4,30,30.04,10.0,West,8.1,-,N/A,,Clear,260,2012-10-11 19:35:00
2:55 PM,67.1,35.6,31,30.03,10.0,WSW,9.2,-,N/A,,Clear,250,2012-10-11 19:55:00
3:15 PM,68.4,35.4,30,30.04,10.0,WSW,10.4,-,N/A,,Clear,240,2012-10-11 20:15:00
3:55 PM,67.1,36.5,32,30.04,10.0,WNW,10.4,18.4,N/A,,Clear,290,2012-10-11 20:55:00
4:15 PM,65.3,35.8,34,30.06,10.0,NW,11.5,16.1,N/A,,Scattered Clouds,310,2012-10-11 21:15:00
4:35 PM,64.8,35.2,33,30.06,10.0,NW,11.5,-,N/A,,Scattered Clouds,310,2012-10-11 21:35:00
5:15 PM,63.0,34.2,34,30.07,10.0,NW,8.1,-,N/A,,Mostly Cloudy,320,2012-10-11 22:15:00
5:55 PM,58.3,35.6,43,30.10,10.0,North,13.8,23.0,N/A,,Overcast,350,2012-10-11 22:55:00
6:35 PM,55.6,37.0,50,30.13,10.0,NNW,16.1,25.3,N/A,,Overcast,340,2012-10-11 23:35:00
6:55 PM,53.8,36.7,52,30.14,10.0,North,16.1,21.9,N/A,,Overcast,350,2012-10-11 23:55:00
7:15 PM,52.9,37.4,56,30.15,10.0,North,19.6,25.3,N/A,,Overcast,360,2012-10-12 00:15:00
7:35 PM,52.0,37.4,58,30.16,10.0,North,6.9,-,N/A,,Mostly Cloudy,360,2012-10-12 00:35:00
7:55 PM,51.6,36.1,56,30.17,10.0,North,11.5,18.4,N/A,,Overcast,360,2012-10-12 00:55:00
8:15 PM,51.4,34.7,53,30.19,10.0,North,8.1,-,N/A,,Overcast,350,2012-10-12 01:15:00
8:35 PM,50.9,36.0,57,30.20,10.0,North,9.2,-,N/A,Rain,Light Rain,350,2012-10-12 01:35:00
8:55 PM,49.8,37.4,62,30.21,10.0,North,10.4,-,N/A,Rain,Light Rain,360,2012-10-12 01:55:00
9:15 PM,48.7,37.0,64,30.21,10.0,North,9.2,-,N/A,Rain,Light Rain,360,2012-10-12 02:15:00
9:55 PM,49.1,34.2,56,30.24,10.0,North,6.9,-,N/A,,Overcast,360,2012-10-12 02:55:00
10:35 PM,48.4,34.2,58,30.26,10.0,North,6.9,-,N/A,,Overcast,350,2012-10-12 03:35:00
10:55 PM,48.2,33.4,57,30.27,10.0,North,5.8,-,N/A,,Mostly Cloudy,350,2012-10-12 03:55:00
11:15 PM,47.3,32.9,57,30.28,10.0,North,5.8,-,N/A,,Mostly Cloudy,350,2012-10-12 04:15:00
11:35 PM,47.3,32.0,55,30.29,10.0,NNW,5.8,-,N/A,,Scattered Clouds,340,2012-10-12 04:35:00
11:55 PM,46.6,32.0,57,30.29,10.0,North,4.6,-,N/A,,Mostly Cloudy,350,2012-10-12 04:55:00